TimeMDT,TemperatureF,Dew PointF,Humidity,Sea Level PressureIn,VisibilityMPH,Wind Direction,Wind SpeedMPH,Gust SpeedMPH,PrecipitationIn,Events,Conditions,WindDirDegrees,DateUTC
12:16 AM,33.8,24.8,70,30.07,10.0,NW,8.1,-,N/A,,Overcast,310,2011-10-25 06:16:00
12:35 AM,33.8,24.8,70,30.07,10.0,NW,9.2,-,N/A,,Overcast,320,2011-10-25 06:35:00
12:55 AM,33.8,24.8,70,30.08,5.0,NNW,18.4,25.3,N/A,,Overcast,340,2011-10-25 06:55:00
1:15 AM,33.8,24.8,70,30.09,5.0,NW,12.7,19.6,N/A,,Overcast,320,2011-10-25 07:15:00
1:35 AM,33.8,24.8,70,30.09,5.0,NNW,15.0,20.7,N/A,,Overcast,330,2011-10-25 07:35:00
2:15 AM,33.8,24.8,70,30.10,5.0,NW,6.9,-,N/A,,Overcast,310,2011-10-25 08:15:00
2:35 AM,32.0,24.8,75,30.10,4.0,NNW,6.9,-,N/A,,Overcast,330,2011-10-25 08:35:00
2:55 AM,32.0,24.8,75,30.09,5.0,WNW,9.2,-,N/A,,Overcast,290,2011-10-25 08:55:00
3:15 AM,33.8,24.8,70,30.10,8.0,West,5.8,-,N/A,,Overcast,280,2011-10-25 09:15:00
3:35 AM,33.8,24.8,70,30.11,8.0,WSW,5.8,-,N/A,,Overcast,250,2011-10-25 09:35:00
3:55 AM,33.8,23.0,65,30.11,10.0,WSW,4.6,-,N/A,,Overcast,250,2011-10-25 09:55:00
4:15 AM,33.8,23.0,65,30.11,10.0,WSW,4.6,-,N/A,,Overcast,250,2011-10-25 10:15:00
4:35 AM,33.8,23.0,65,30.12,10.0,WSW,4.6,-,N/A,,Overcast,240,2011-10-25 10:35:00
4:55 AM,33.8,23.0,65,30.12,10.0,West,3.5,-,N/A,,Overcast,260,2011-10-25 10:55:00
5:35 AM,33.8,23.0,65,30.13,10.0,WNW,4.6,-,N/A,,Overcast,290,2011-10-25 11:35:00
6:55 AM,33.8,21.2,60,30.14,10.0,Calm,Calm,-,N/A,,Overcast,0,2011-10-25 12:55:00
7:15 AM,33.8,21.2,60,30.15,10.0,NW,3.5,-,N/A,,Overcast,310,2011-10-25 13:15:00
7:35 AM,33.8,21.2,60,30.16,10.0,North,3.5,-,N/A,,Overcast,360,2011-10-25 13:35:00
7:55 AM,33.8,19.4,56,30.17,10.0,Calm,Calm,-,N/A,,Overcast,0,2011-10-25 13:55:00
8:15 AM,33.8,19.4,56,30.17,10.0,NW,5.8,-,N/A,,Overcast,320,2011-10-25 14:15:00
8:35 AM,33.8,17.6,52,30.18,10.0,NNW,3.5,-,N/A,,Overcast,330,2011-10-25 14:35:00
8:56 AM,33.8,17.6,52,30.19,10.0,Calm,Calm,-,N/A,,Overcast,0,2011-10-25 14:56:00
9:15 AM,33.8,17.6,52,30.20,10.0,Calm,Calm,-,N/A,,Overcast,0,2011-10-25 15:15:00
9:35 AM,33.8,17.6,52,30.20,10.0,Calm,Calm,-,N/A,,Overcast,0,2011-10-25 15:35:00
10:15 AM,33.8,17.6,52,30.21,10.0,NE,5.8,-,N/A,,Overcast,50,2011-10-25 16:15:00
10:35 AM,33.8,17.6,52,30.21,10.0,NNE,3.5,-,N/A,,Overcast,30,2011-10-25 16:35:00
10:55 AM,33.8,19.4,56,30.21,10.0,Calm,Calm,-,N/A,,Overcast,0,2011-10-25 16:55:00
11:15 AM,35.6,17.6,48,30.21,10.0,Calm,Calm,-,N/A,,Overcast,0,2011-10-25 17:15:00
11:35 AM,35.6,19.4,52,30.21,10.0,SSE,4.6,-,N/A,,Overcast,160,2011-10-25 17:35:00
11:55 AM,35.6,19.4,52,30.21,10.0,Calm,Calm,-,N/A,,Overcast,0,2011-10-25 17:55:00
12:35 PM,37.4,19.4,48,30.22,10.0,WNW,3.5,-,N/A,,Overcast,300,2011-10-25 18:35:00
1:15 PM,37.4,17.6,45,30.21,10.0,WNW,3.5,-,N/A,,Overcast,300,2011-10-25 19:15:00
1:55 PM,37.4,17.6,45,30.19,10.0,Calm,Calm,-,N/A,,Overcast,0,2011-10-25 19:55:00
2:35 PM,39.2,17.6,42,30.18,10.0,NW,8.1,-,N/A,,Mostly Cloudy,310,2011-10-25 20:35:00
2:55 PM,37.4,17.6,45,30.18,10.0,North,6.9,-,N/A,,Overcast,350,2011-10-25 20:55:00
3:15 PM,37.4,17.6,45,30.18,10.0,NNW,11.5,-,N/A,,Overcast,340,2011-10-25 21:15:00
3:35 PM,37.4,15.8,41,30.18,10.0,NW,8.1,-,N/A,,Overcast,310,2011-10-25 21:35:00
3:55 PM,39.2,15.8,39,30.18,10.0,NNW,6.9,-,N/A,,Overcast,340,2011-10-25 21:55:00
4:15 PM,37.4,15.8,41,30.18,10.0,North,11.5,-,N/A,,Overcast,350,2011-10-25 22:15:00
5:15 PM,37.4,15.8,41,30.19,10.0,NW,10.4,-,N/A,,Overcast,320,2011-10-25 23:15:00
5:35 PM,37.4,14.0,38,30.20,10.0,NNW,10.4,-,N/A,,Overcast,330,2011-10-25 23:35:00
5:55 PM,37.4,15.8,41,30.20,10.0,NNW,10.4,-,N/A,,Overcast,330,2011-10-25 23:55:00
6:15 PM,37.4,15.8,41,30.21,10.0,NNW,6.9,-,N/A,,Overcast,330,2011-10-26 00:15:00
6:35 PM,35.6,15.8,44,30.21,10.0,NW,5.8,-,N/A,,Overcast,320,2011-10-26 00:35:00
7:35 PM,35.6,17.6,48,30.23,10.0,NW,5.8,-,N/A,,Overcast,320,2011-10-26 01:35:00
7:55 PM,35.6,17.6,48,30.24,10.0,NW,5.8,-,N/A,,Overcast,310,2011-10-26 01:55:00
8:15 PM,35.6,17.6,48,30.24,10.0,WNW,6.9,-,N/A,,Overcast,300,2011-10-26 02:15:00
8:35 PM,35.6,17.6,48,30.25,10.0,NW,6.9,-,N/A,,Overcast,310,2011-10-26 02:35:00
8:55 PM,33.8,17.6,52,30.25,10.0,NW,6.9,-,N/A,,Overcast,320,2011-10-26 02:55:00
9:15 PM,33.8,17.6,52,30.25,10.0,WNW,6.9,-,N/A,,Overcast,290,2011-10-26 03:15:00
9:35 PM,33.8,19.4,56,30.26,10.0,West,3.5,-,N/A,,Overcast,270,2011-10-26 03:35:00
9:56 PM,33.8,19.4,56,30.26,10.0,NW,10.4,-,N/A,,Overcast,320,2011-10-26 03:56:00
10:15 PM,33.8,17.6,52,30.27,10.0,NW,8.1,-,N/A,,Overcast,320,2011-10-26 04:15:00
10:35 PM,33.8,19.4,56,30.27,10.0,WNW,5.8,-,N/A,,Overcast,290,2011-10-26 04:35:00
10:55 PM,32.0,19.4,60,30.27,10.0,WNW,3.5,-,N/A,,Overcast,290,2011-10-26 04:55:00
11:35 PM,32.0,19.4,60,30.27,10.0,WNW,3.5,-,N/A,,Overcast,300,2011-10-26 05:35:00